星链-30410 (STARLINK-30410 )

导读

STARLINK-30410是美国太空探索技术公司SpaceX星链星座中的一员,于2023年9月12日发射入轨。作为星链低轨互联网星座的组成卫星,它运行在近地轨道,主要为全球提供高速宽带互联网服务,尤其助力偏远、网络匮乏地区接入网络。星链项目通过大规模部署低轨卫星,构建全球覆盖的卫星互联网星座,持续推动全球互联基础设施建设,该卫星的成功入轨进一步扩充了星链星座的服务覆盖能力与网络容量。

基本信息
目录编号:
57841
目录名称:
STARLINK-30410
国际标识:
2023-141B
轨道中心:
EARTH
卫星名称:
星链-30410
卫星全名:
星链-30410 (STARLINK-30410 )
卫星状态:
在轨 (已飞行1010 天)
发射日期:
2023-09-12 UTC
国别 :
美国 (US)
星等 :
--
轨道信息
数据来源 国际轨道数据 AOE轨道数据
星历时间 2026-06-17T15:09:52+0800
1天前
查看轨道信息
2026-06-15T07:00:00+0800
3天前
查看轨道信息
半长轴 6848.872km 6848.888km
偏心率 0.0001345 0.0001318
轨道倾角 53.161° 53.158°
近地点辐角 91.313° 90.540°
升交点赤经 180.897° 191.794°
平近点角 268.802° 318.327°
近地点 469.813km 469.848km
远地点 471.657km 471.654km
周期 94.013分钟 94.013分钟
每日圈数 15.317019 15.316966
详细信息
固有亮度:
5
最大亮度:
0.3
卫星平台:
Starlink v2.0 mini
覆盖范围:
全球
运营商:
太空探索技术公司
运营商所在国:
美国
制造商(研发单位):
太空探索技术公司
制造商所在国:
美国
使用方式:
暂无
卫星简介
星链(Starlink)计划是由太空探索技术公司(SpaceX)提出的一个巨型低轨卫星互联网星座项目,计划在2019年至2024年间在太空搭建由约1.2万颗卫星组成的“星链”网络,其中1584颗将部署在地球上空550千米处的近地轨道,并从2020年开始工作。该卫星仍在工作。
2D轨道图
3D轨道图
轨道高度分析图
轨道倾角分析图
轨道综合分析图
查看轨道综合分析图